Tracking 19909 objects as of 22-Oct-2019
HD Live streaming from Space Station
objects crossing your sky now

COSMOS 1275 DEB

Track COSMOS 1275 DEB now!
10-day predictions


NORAD ID: 13021
Int'l Code: 1981-053ET
Perigee: 884.7 km
Apogee: 923.2 km
Inclination: 83.1 °
Period: 102.9 minutes
Semi major axis: 7274 km
RCS: 0.0839 m2 (small)
Launch date: June 4, 1981
Source: Commonwealth of Independent States (former USSR) (CIS)
Launch site: PLESETSK MISSILE AND SPACE COMPLEX (PKMTR)

Note: This is SATELLITE DEBRIS
aabbcc
Your satellite tracking list
Your tracking list is empty




NASA's NSSDC Master Catalog

Two Line Element Set (TLE):
1 13021U 81053ET  19295.11444236  .00000460  00000-0  30506-3 0  9992
2 13021  83.1457 316.6302 0026491 115.5584 303.1409 13.99136024919578
Source of the keplerian elements: AFSPC